Waarnemingen

Advertentie
Mijn weer
Spa/La Sauveniere, België (6490): temperatuur & dauwpunt: 11.08.2019 15:00:00 - 17.08.2019 15:00:00 (CEST)Spa/La Sauveniere, België (6490): windsnelheid & windstoten: 11.08.2019 15:00:00 - 17.08.2019 15:00:00 (CEST)Spa/La Sauveniere, België (6490): windrichting: 11.08.2019 15:00:00 - 17.08.2019 15:00:00 (CEST)Spa/La Sauveniere, België (6490): luchtdruk: 11.08.2019 15:00:00 - 17.08.2019 15:00:00 (CEST)Spa/La Sauveniere, België (6490): zicht: 11.08.2019 15:00:00 - 17.08.2019 15:00:00 (CEST)
Datum & Tijd tt [°C] td [°C] ff [km/u] ff [kn] fx [km/u] fx [kn] dd ppp [hPa] vv [km]
17.08.2019 15:00:00 - - - - - - - - -
17.08.2019 14:00:00 16,7 13,8 14 8 - - ZZW 1010,2 45
17.08.2019 13:00:00 15,9 12,9 14 8 29 16 ZZW 1010,4 15
17.08.2019 12:00:00 15,5 12,3 18 10 32 18 ZZW 1010,5 -
17.08.2019 11:00:00 15,2 11,4 18 10 - - Z 1010,3 29
17.08.2019 10:00:00 15,3 11,3 22 12 43 23 ZZW 1010,4 45
17.08.2019 09:00:00 15,9 10,6 18 10 40 21 ZZW 1010,0 40
17.08.2019 08:00:00 15,9 10,9 14 8 - - ZZW 1009,9 40
17.08.2019 07:00:00 15,7 10,6 18 10 29 16 Z 1009,6 45
17.08.2019 06:00:00 15,7 10,3 14 8 32 18 Z 1009,4 45
17.08.2019 05:00:00 16,1 10,4 18 10 - - Z 1009,5 40
17.08.2019 04:00:00 16,0 10,3 14 8 25 14 Z 1010,2 45
17.08.2019 03:00:00 16,1 10,4 14 8 25 14 Z 1010,9 45
17.08.2019 02:00:00 15,7 10,0 14 8 - - ZZO 1011,4 45
17.08.2019 01:00:00 15,5 9,9 14 8 25 14 Z 1012,2 35
17.08.2019 00:00:00 16,4 10,1 11 6 22 12 Z 1012,6 45
16.08.2019 23:00:00 16,2 9,6 14 8 - - Z 1013,5 45
16.08.2019 22:00:00 15,9 9,1 11 6 18 10 Z 1013,6 45
16.08.2019 21:00:00 15,8 8,9 7 4 11 6 ZZO 1013,8 45
16.08.2019 20:00:00 17,4 9,1 7 4 - - ZZW 1014,1 40
16.08.2019 19:00:00 18,4 9,3 14 8 29 16 ZZW 1013,9 40
16.08.2019 18:00:00 19,0 9,3 11 6 29 16 Z 1014,5 35
16.08.2019 17:00:00 18,5 9,7 14 8 - - WZW 1015,5 45
16.08.2019 16:00:00 18,8 9,9 14 8 32 18 ZW 1015,9 30
16.08.2019 15:00:00 18,1 10,3 14 8 29 16 WZW 1016,5 40
16.08.2019 14:00:00 16,7 9,4 14 8 - - WZW 1017,4 35
16.08.2019 13:00:00 16,3 9,9 14 8 32 18 ZW 1017,8 30
16.08.2019 12:00:00 15,3 10,6 14 8 29 16 ZZW 1018,3 28
16.08.2019 11:00:00 14,6 10,9 18 10 - - Z 1018,5 30
16.08.2019 10:00:00 13,9 10,5 18 10 29 16 Z 1018,4 23
16.08.2019 09:00:00 12,3 9,4 11 6 22 12 ZW 1019,1 14
16.08.2019 08:00:00 12,0 11,2 11 6 - - ZW 1018,8 11
16.08.2019 07:00:00 11,8 10,4 11 6 18 10 ZW 1019,0 -
16.08.2019 06:00:00 12,1 9,4 11 6 18 10 ZW 1018,8 5
16.08.2019 05:00:00 12,2 12,2 11 6 - - WZW 1018,9 9
16.08.2019 04:00:00 11,4 8,1 11 6 18 10 ZZW 1018,8 12
16.08.2019 03:00:00 12,3 9,1 11 6 14 8 ZW 1018,6 16
16.08.2019 02:00:00 12,5 11,4 11 6 - - WZW 1018,7 14
16.08.2019 01:00:00 13,3 11,9 11 6 18 10 WZW 1018,2 16
16.08.2019 00:00:00 13,6 12,5 11 6 22 12 W 1018,0 17
15.08.2019 23:00:00 13,9 11,1 7 4 - - W 1017,6 22
15.08.2019 22:00:00 13,9 10,7 11 6 18 10 W 1017,0 25
15.08.2019 21:00:00 13,5 12,1 7 4 18 10 W 1016,3 23
15.08.2019 20:00:00 13,3 10,6 7 4 - - W 1015,6 25
15.08.2019 19:00:00 16,3 12,7 14 8 29 16 WZW 1013,9 30
15.08.2019 18:00:00 15,5 13,5 14 8 32 18 W 1013,9 30
15.08.2019 17:00:00 15,6 11,9 11 6 - - WZW 1013,7 30
15.08.2019 16:00:00 16,6 12,0 18 10 32 18 WZW 1012,9 35
15.08.2019 15:00:00 16,8 13,1 18 10 32 18 W 1012,4 30
15.08.2019 14:00:00 16,8 12,6 18 10 - - W 1011,8 30
15.08.2019 13:00:00 15,3 13,1 14 8 32 18 W 1011,9 15
15.08.2019 12:00:00 14,7 13,4 14 8 32 18 WZW 1011,7 5
15.08.2019 11:00:00 15,5 12,3 14 8 - - WZW 1011,4 40
15.08.2019 10:00:00 14,6 12,9 14 8 29 16 WZW 1011,2 30
15.08.2019 09:00:00 14,2 13,9 14 8 29 16 WZW 1011,2 35
15.08.2019 08:00:00 13,8 13,2 14 8 - - WZW 1011,3 6
15.08.2019 07:00:00 13,6 12,4 18 10 36 19 ZW 1011,1 -
15.08.2019 06:00:00 13,4 10,5 18 10 36 19 ZW 1011,1 13
15.08.2019 05:00:00 13,5 11,9 18 10 - - ZZW 1011,2 21
15.08.2019 04:00:00 14,1 11,1 14 8 29 16 ZZW 1011,9 35
15.08.2019 03:00:00 14,1 11,3 18 10 29 16 Z 1012,4 45
15.08.2019 02:00:00 14,2 12,0 18 10 - - Z 1012,9 45
15.08.2019 01:00:00 13,5 9,1 7 4 22 12 Z 1014,0 7
15.08.2019 00:00:00 14,7 9,2 14 8 25 14 Z 1013,7 40
14.08.2019 23:00:00 14,7 8,9 11 6 - - Z 1014,1 18
14.08.2019 22:00:00 15,8 8,6 11 6 14 8 ZZO 1014,3 45
14.08.2019 21:00:00 16,1 8,7 11 6 18 10 ZZO 1014,5 45
14.08.2019 20:00:00 17,3 9,1 11 6 - - Z 1014,8 45
14.08.2019 19:00:00 18,2 9,0 11 6 22 12 ZZW 1015,2 40
14.08.2019 18:00:00 17,8 8,7 14 8 25 14 ZW 1016,0 45
14.08.2019 17:00:00 18,0 8,0 14 8 - - ZW 1016,6 40
14.08.2019 16:00:00 17,8 8,0 14 8 25 14 ZZW 1017,0 30
14.08.2019 15:00:00 18,1 8,4 11 6 25 14 ZZW 1017,3 35
14.08.2019 14:00:00 17,3 8,7 11 6 - - ZZW 1018,0 35
14.08.2019 13:00:00 15,4 8,4 14 8 25 14 ZZW 1018,8 40
14.08.2019 12:00:00 14,4 9,1 14 8 25 14 Z 1019,4 35
14.08.2019 11:00:00 14,0 9,5 11 6 - - ZZW 1019,7 40
14.08.2019 10:00:00 12,5 9,2 14 8 22 12 Z 1019,9 40
14.08.2019 09:00:00 11,1 7,5 11 6 22 12 Z 1020,1 21
14.08.2019 08:00:00 10,0 10,0 14 8 - - Z 1020,2 12
14.08.2019 07:00:00 9,2 7,2 11 6 18 10 Z 1020,2 1,9
14.08.2019 06:00:00 9,3 5,9 7 4 14 8 ZZW 1020,0 10
14.08.2019 05:00:00 10,3 6,4 7 4 - - ZW 1020,0 19
14.08.2019 04:00:00 10,4 10,4 7 4 14 8 ZW 1020,1 14
14.08.2019 03:00:00 10,5 7,3 7 4 14 8 ZZW 1020,1 23
14.08.2019 02:00:00 - - - - - - - - -
14.08.2019 01:00:00 - - - - - - - - -
14.08.2019 00:00:00 11,1 9,9 7 4 14 8 WZW 1020,1 45
13.08.2019 23:00:00 11,3 8,0 11 6 - - WZW 1020,2 45
13.08.2019 22:00:00 11,5 8,0 11 6 18 10 WZW 1020,0 45
13.08.2019 21:00:00 11,6 8,2 11 6 18 10 ZZW 1019,5 40
13.08.2019 20:00:00 12,3 8,5 11 6 - - ZZW 1019,2 35
13.08.2019 19:00:00 12,3 8,2 11 6 22 12 WZW 1019,3 40
13.08.2019 18:00:00 11,4 6,8 11 6 22 12 ZW 1020,1 24
13.08.2019 17:00:00 12,0 8,3 11 6 - - W 1019,9 21
13.08.2019 16:00:00 15,3 6,4 18 10 29 16 W 1018,5 40
13.08.2019 15:00:00 15,8 6,9 11 6 29 16 WZW 1018,6 35
13.08.2019 14:00:00 16,1 6,3 14 8 - - WZW 1018,7 30
13.08.2019 13:00:00 15,0 7,2 14 8 32 18 WZW 1019,3 30
13.08.2019 12:00:00 13,9 7,2 14 8 29 16 W 1019,8 40
13.08.2019 11:00:00 13,6 8,8 14 8 - - W 1019,6 30
13.08.2019 10:00:00 12,1 9,2 11 6 18 10 WZW 1019,7 21
13.08.2019 09:00:00 10,7 7,7 11 6 22 12 W 1019,5 -
13.08.2019 08:00:00 10,3 8,9 11 6 - - W 1019,1 -
13.08.2019 07:00:00 - - - - - - - - -
13.08.2019 06:00:00 - - - - - - - - -
13.08.2019 05:00:00 - - - - - - - - -
13.08.2019 04:00:00 - - - - - - - - -
13.08.2019 03:00:00 - - - - - - - - -
13.08.2019 02:00:00 - - - - - - - - -
13.08.2019 01:00:00 - - - - - - - - -
13.08.2019 00:00:00 - - - - - - - - -
12.08.2019 23:00:00 - - - - - - - - -
12.08.2019 22:00:00 10,8 9,2 14 8 25 14 Z 1017,0 45
12.08.2019 21:00:00 10,6 9,2 18 10 32 18 Z 1016,9 28
12.08.2019 20:00:00 12,4 10,1 14 8 - - ZZO 1015,8 35
12.08.2019 19:00:00 12,2 8,5 - - 11 6 - 1016,5 5
12.08.2019 18:00:00 12,7 7,5 7 4 22 12 ZO 1015,7 40
12.08.2019 17:00:00 12,2 - - - - - - - -
12.08.2019 16:00:00 16,3 9,5 4 2 25 14 - 1014,8 40
12.08.2019 15:00:00 17,6 9,9 11 6 32 18 WNW 1014,6 40
12.08.2019 14:00:00 17,9 9,4 14 8 - - WZW 1014,7 30
12.08.2019 13:00:00 17,3 9,8 7 4 25 14 - 1015,6 35
12.08.2019 12:00:00 17,3 10,0 11 6 22 12 WZW 1015,9 30
12.08.2019 11:00:00 16,5 10,2 11 6 - - W 1016,1 35
12.08.2019 10:00:00 16,0 10,5 11 6 22 12 WZW 1016,1 40
12.08.2019 09:00:00 13,0 11,0 14 8 32 18 Z 1016,6 28
12.08.2019 08:00:00 11,8 9,2 22 12 - - ZZO 1016,7 21
12.08.2019 07:00:00 11,2 9,8 18 10 29 16 ZZO 1017,0 20
12.08.2019 06:00:00 11,5 8,4 14 8 25 14 Z 1016,7 22
12.08.2019 05:00:00 12,1 8,7 18 10 - - Z 1016,6 25
12.08.2019 04:00:00 12,5 8,7 18 10 29 16 Z 1016,6 24
12.08.2019 03:00:00 12,4 8,5 14 8 25 14 ZZW 1016,7 30
12.08.2019 02:00:00 12,6 7,9 14 8 - - ZZW 1017,0 29
12.08.2019 01:00:00 12,7 7,2 11 6 22 12 ZZW 1017,2 40
12.08.2019 00:00:00 13,1 6,9 11 6 18 10 ZZW 1017,1 35
11.08.2019 23:00:00 13,9 7,5 14 8 - - ZW 1016,7 40
11.08.2019 22:00:00 14,9 7,6 11 6 18 10 ZZW 1016,4 40
11.08.2019 21:00:00 14,9 6,7 7 4 14 8 ZW 1016,1 35
11.08.2019 20:00:00 15,7 7,0 7 4 - - WZW 1015,4 40
11.08.2019 19:00:00 17,1 7,7 11 6 25 14 ZW 1014,5 27
11.08.2019 18:00:00 17,2 8,1 14 8 29 16 W 1014,8 30
11.08.2019 17:00:00 16,6 8,4 11 6 - - WZW 1015,4 28
11.08.2019 16:00:00 16,1 7,7 11 6 22 12 ZW 1015,8 30
11.08.2019 15:00:00 16,6 7,7 11 6 29 16 WZW 1015,7 30

tt = temperatuur
td = dauwpunt
ff = windsnelheid
fx = windstoten
dd = windrichting
ppp = luchtdruk
vv = zicht

Weerstations in de omgeving